Weather in Murafa

Ukraine / Vinnytsia Region     48°45′59″N   28°13′04″E
temp.,
°C
wind,
m/s
gust,
m/s
humid.,
%
clouds,
%
prec.,
mm/h
press.,
hPa
HPBL,
m
6 may, thu
thu600:00+10sse7147933 0.0 1006440
03:00+9s613905 0.0 1005306
06:00+9ssw4994100 0.0 1006299
09:00+8nw71184100 0.2 1011799
12:00+12nw7958100 0.0 10121291
15:00+14wnw58445 0.0 10131877
18:00+14nw45425 0.0 10131744
21:00+10nnw2254100 0.0 101413
7 may, fri
fri700:00+10se345282 0.0 101468
03:00+8sse366481 0.0 1014120
06:00+9se51162100 0.0 1013337
09:00+12sse8137675 0.1 1012731
12:00+12s71186100 0.1 1011900
15:00+15ssw5873100 1.8 1008917
18:00+14sw61177100 1.8 1007462
21:00+12w258998 1.8 1007128
8 may, sat
sat800:00+11wnw2391100 0.1 100784
03:00+9nw61094100 2.1 1009454
06:00+8nw51185100 1.1 1012621
09:00+6nw71281100 1.1 1015717
12:00+10nw7956100 0.0 10161748
15:00+11nnw795486 0.1 10171886
18:00+9nw786116 0.1 10191373
21:00+5nw410696 0.1 1021280
9 may, sun
sun900:00+3nw37760 0.0 1022138
03:00+2wnw38860 0.0 1024142
06:00+2wnw37910 0.0 1025125
09:00+9nw45675 0.0 1026538
12:00+12nw454520 0.0 10261780
15:00+14nw34405 0.0 10252088
18:00+14nw124168 0.0 10251935
21:00+9se225585 0.0 102614
10 may, mon
mon1000:00+7se33610 0.0 102720
03:00+6se34645 0.0 102742
06:00+6se34685 0.0 102759
09:00+12se46585 0.0 1027408
12:00+16se55495 0.0 10261369
15:00+17se44450 0.0 10251487
18:00+17ese44510 0.0 10241409
21:00+11ese46710 0.0 102492